User: anonymous
Location: Bridgewater Hill Observatory
(43.5992°N, 72.6989°W)
Time: 20:21:25
(UTC-04:00)
Language:

Cosmos 1452 Rocket - Orbit

View from above orbital plane
View from above orbital plane
View from above satellite
View from above satellite

Ground track
Ground track

The orbit data is extracted from the following two-line orbital elements,

1 13992U 83031B   14273.84983534  .00000181  00000-0  71722-4 0  5270
2 13992 074.0560 023.2271 0005994 257.3556 241.3878 14.35779511646658
Epoch (UTC): 30 September 2014 20:23:45
Eccentricity: 0.0005994
inclination: 74.0560°
perigee height: 768 km
apogee height: 777 km
right ascension of ascending node: 23.2271°
argument of perigee: 257.3556°
revolutions per day: 14.35779511
mean anomaly at epoch: 241.3878°
orbit number at epoch: 64665

The dashed part of the orbit path shows where the satellite is in the earth's shadow,  

DLR